Regional Weather Roundup
Issued by NWS

Home | Current Version | Previous Version | Graphics & Text | Print | Product List | Glossary Off
Versions: 1 2 3 4 5 6 7 8 9 10 11 12 13 14 15 16 17 18 19 20 21 22 23 24 25 26 27 28 29 30 31 32 33 34 35 36 37 38 39 40 41 42 43 44 45 46 47 48 49 50

000
ASUS43 KLSX 300207
RWRMO

WEATHER SUMMARY FOR MISSOURI
NATIONAL WEATHER SERVICE SPRINGFIELD MO
900 PM CDT FRI MAY 29 2015

NOTE: "FAIR" INDICATES FEW OR NO CLOUDS BELOW 12,000 FEET WITH NO
       SIGNIFICANT WEATHER AND/OR OBSTRUCTIONS TO VISIBILITY.
       CURRENT SKY AND/OR WEATHER CONDITIONS ARE NOT AVAILABLE FOR
       CHILLICOTHE AND FARMINGTON.

MOZ001>031-035>038-043-044-053-054-300300-
...NORTHERN AND WESTERN MISSOURI...

CITY           SKY/WX    TMP DP  RH WIND       PRES   REMARKS
KANSAS CTY INT CLOUDY    65  64  97 S5        29.95S
KANSAS C DTWN  CLOUDY    69  63  81 S3        29.94S
LEE`S SUMMIT   CLOUDY    66  64  93 CALM      29.96R
ST JOSEPH      CLOUDY    68  65  90 S6        29.94S
CHILLICOTHE      N/A     69  65  86 S3        29.97R
KIRKSVILLE     CLOUDY    68  66  93 S7        29.98R

$$
MOZ066>068-077>081-088>096-101>105-300300-
...SOUTHWEST MISSOURI...

CITY           SKY/WX    TMP DP  RH WIND       PRES   REMARKS
SPRINGFIELD    RAIN      67  65  93 E3        29.96F
JOPLIN         CLOUDY    64  63  96 CALM      29.94S

$$
MOZ032>034-039>042-045>050-055>058-069>072-300300-
...CENTRAL MISSOURI...

CITY           SKY/WX    TMP DP  RH WIND       PRES   REMARKS
COLUMBIA       CLOUDY    69  67  93 SE6       29.99S
JEFFERSON CITY CLOUDY    68  64  87 E3        29.98R
ROLLA          LGT RAIN  67  66  97 NE7       29.97F
SEDALIA        LGT RAIN  68  64  87 SE10      29.97S
WHITEMAN AFB   LGT RAIN  66  64  94 SE2       29.96R
WARRENSBURG    CLOUDY    64  64 100 CALM      29.96R
OSAGE BEACH    CLOUDY    66  64  94 N5        29.97S

$$
MOZ051-052-059>065-300300-
...EAST CENTRAL MISSOURI...

CITY           SKY/WX    TMP DP  RH WIND       PRES   REMARKS
ST LOUIS INTL  CLOUDY    76  68  76 S7        29.99R
SPIRIT OF STL  CLOUDY    74  71  91 SE3       29.97R
ST CHARLES     CLOUDY    76  69  79 S8        29.97R

$$
MOZ072>076-082>087-097>100-106>115-300300-
...SOUTH CENTRAL AND SOUTHEAST MISSOURI...

CITY           SKY/WX    TMP DP  RH WIND       PRES   REMARKS
CAPE GIRARDEAU MOCLDY    76  70  82 S3        30.00R
FARMINGTON     CLOUDY    68  66  94 CALM      30.05S
POPLAR BLUFF   MOCLDY    77  69  76 SE9       29.97R
WEST PLAINS    CLOUDY    69  66  90 CALM      29.98S

$$


USA.gov is the U.S. government's official web portal to all federal, state and local government web resources and services.